Regional Weather Roundup
Issued by NWS

Home | Current Version | Previous Version | Graphics & Text | Print | Product List | Glossary On
Versions: 1 2 3 4 5 6 7 8 9 10 11 12 13 14 15 16 17 18 19 20 21 22 23 24 25 26 27 28 29 30 31 32 33 34 35 36 37 38 39 40 41 42 43 44 45 46 47 48 49 50
029
ASUS43 KMKX 031411
RWRWI

WISCONSIN REGIONAL WEATHER ROUNDUP
NATIONAL WEATHER SERVICE MILWAUKEE/SULLIVAN WI
800 AM CST SAT DEC 03 2016

NOTE: "FAIR" INDICATES FEW OR NO CLOUDS BELOW 12,000 FEET WITH NO
SIGNIFICANT WEATHER AND/OR OBSTRUCTIONS TO VISIBILITY.

WIZ001-002-006>008-014>016-023>028-031500-
NORTHWEST WISCONSIN

CITY           SKY/WX    TMP DP  RH WIND       PRES   REMARKS
SUPERIOR ARPT  CLOUDY    29  25  84 SW3       30.29S
ASHLAND        CLOUDY    30  26  85 VRB5      30.29R WCI  25
HAYWARD        CLOUDY    29  24  82 CALM      30.27S
SIREN          CLOUDY    29  25  85 SW3       30.28S
CUMBERLAND     CLOUDY    28  25  86 W3        30.27F
RICE LAKE      CLOUDY    29  26  86 CALM      30.30S
CHETEK         CLOUDY    29  27  92 CALM      30.28F
LADYSMITH      CLOUDY    29  27  92 CALM      30.29F
EAU CLAIRE     CLOUDY    29  24  82 SW6       30.30S WCI  23
MENOMONIE      CLOUDY    29  26  86 SW3       30.31S
NEW RICHMOND   CLOUDY    28  27  94 SW5       30.29S WCI  23
OSCEOLA        CLOUDY    29  26  86 SW3       30.32S
$$

WIZ003>005-009-010-017-018-031500-
NORTH CENTRAL WISCONSIN

CITY           SKY/WX    TMP DP  RH WIND       PRES   REMARKS
MANITOWISH WTR CLOUDY    26  26 100 SW5       30.24S WCI  20
ARBOR VITAE    CLOUDY    27  25  93 CALM      30.25R
WOODRUFF       CLOUDY    27  25  93 CALM      30.25R
RHINELANDER    CLOUDY    27  23  85 W8        30.26S WCI  19
EAGLE RIVER    CLOUDY    27  26  99 CALM      30.24S
LAND O LAKES   CLOUDY    28  26  91 W3        30.26R
PHILLIPS       CLOUDY    26  26  96 SW3       30.26R
TOMAHAWK       CLOUDY    26  21  80 CALM      30.27S
MEDFORD        CLOUDY    27  21  79 W3        30.26S
MERRILL        MIX PCPN  27  24  86 CALM      30.28S
$$

WIZ029-030-035-036-043>047-031500-
CENTRAL WISCONSIN

CITY           SKY/WX    TMP DP  RH WIND       PRES   REMARKS
WAUSAU         CLOUDY    28  22  78 NW3       30.27S
MOSINEE        CLOUDY    28  25  86 W6        30.29R WCI  22
MARSHFIELD     CLOUDY    29  22  75 W6        30.27S WCI  23
STEVENS POINT  CLOUDY    28  22  78 CALM      30.30S
WAUPACA        CLOUDY    33  24  70 CALM      30.32R
WAUTOMA        CLOUDY    31  23  72 W3        30.32S
WISC RAPIDS    CLOUDY    30  23  75 W5        30.32R WCI  25
CAMP DOUGLAS   FLURRIES  28  21  74 W9        30.32S WCI  20
$$

WIZ011>013-019>022-031-037>040-048>050-031500-
NORTHEAST WISCONSIN

CITY           SKY/WX    TMP DP  RH WIND       PRES   REMARKS
ANTIGO         CLOUDY    26  23  90 W7        30.27R WCI  18
SHAWANO        CLOUDY    32  25  74 W3        30.31R
OCONTO         CLOUDY    32  27  80 W5        30.30R WCI  27
STURGEON BAY   CLOUDY    33  28  81 W8        30.29S WCI  26
GREEN BAY      CLOUDY    33  26  75 W14       30.31R WCI  23
MANITOWOC      CLOUDY   N/A N/A N/A MISG      30.31R
APPLETON       CLOUDY    30  21  69 W6        30.30R WCI  24
CLINTONVILLE   CLOUDY    32  23  69 W7        30.31R WCI  26
OSHKOSH        CLOUDY    31  24  75 W5        30.32R WCI  26
$$

WIZ032>034-041-042-053>061-031500-
SOUTHWEST WISCONSIN

CITY           SKY/WX    TMP DP  RH WIND       PRES   REMARKS
LA CROSSE      CLOUDY    32  22  66 SW3       30.32F
SPARTA         CLOUDY    30  22  74 CALM      30.32F
VIROQUA        CLOUDY    28  24  84 CALM      30.30S
BOSCOBEL       CLOUDY    32  23  69 E5        30.33F WCI  27
PRAIRIE DU CHI CLOUDY    31  22  70 CALM      30.32F
PLATTEVILLE    CLOUDY    30  26  85 N6        30.32F WCI  24
$$

WIZ056-057-062-063-064-067-068-031500-
SOUTH CENTRAL WISCONSIN

CITY           SKY/WX    TMP DP  RH WIND       PRES   REMARKS
REEDSBURG      CLOUDY    29  22  75 W9        30.33S WCI  20
BARABOO/DELLS  CLOUDY    29  21  71 W6        30.32F WCI  23
LONE ROCK      CLOUDY    30  23  75 W12       30.34F WCI  20
MINERAL POINT  CLOUDY    32  27  80 W9        30.31F WCI  24
MADISON        CLOUDY    30  21  69 W7        30.33F WCI  23
MIDDLETON      CLOUDY    31  24  74 W7        30.33F WCI  24
WATERTOWN      CLOUDY    31  24  75 W7        30.33S WCI  24
MONROE         CLOUDY    30  23  74 W8        30.32F WCI  23
JANESVILLE     CLOUDY    32  23  69 W8        30.34F WCI  25
$$

WIZ051-052-058>065-066-070>072-031500-
SOUTHEAST WISCONSIN

CITY           SKY/WX    TMP DP  RH WIND       PRES   REMARKS
MILWAUKEE      CLOUDY    32  22  66 NW8       30.34S WCI  25
WAUKESHA       CLOUDY    28  21  74 W8        30.34S WCI  20
MILWAUKEE/TIMM CLOUDY    30  21  69 W8        30.35R WCI  23
RACINE         CLOUDY    31  23  72 W7        30.36S WCI  24
BURLINGTON     CLOUDY    31  25  78 CALM      30.34S
KENOSHA        CLOUDY    31  24  75 NW8       30.35R WCI  23
FOND DU LAC    CLOUDY    31  23  72 W3        30.33R
SHEBOYGAN      CLOUDY    31  24  75 W9        30.33R WCI  23
WEST BEND      CLOUDY    30  27  86 W6        30.33R WCI  24
JUNEAU         CLOUDY    30  23  77 W3        30.34S
$$

LSZ147-162-031500-
LAKE SUPERIOR

STATION/POSITION TIME  TEMP    WIND        PRES    WAVE
                       AIR SEA DIR/SP/G            HT/PER
                 (UTC) (F)     (DEG/KT/KT) (MB)    (FT/S)
DEVILS ISLAND    1300   33     260/  6/  7 1025.7R
PORT WING        1230   30     210/  6/  8 1025.4R
SAXON HARBOR     1240   31     200/  6/  9 1025.1R
$$

LMZ867-665-643>646-031500-
LAKE MICHIGAN

STATION/POSITION TIME  TEMP    WIND        PRES    WAVE
                       AIR SEA DIR/SP/G            HT/PER
                 (UTC) (F)     (DEG/KT/KT) (MB)    (FT/S)
CHAMBERS ISLAND  1340   35     250/  3/  7 1024.7R
NORTHPORT PIER   1330   37     290/  8/ 11 1024.7S
SISTER BAY       1338   37     340/ 11/ 12   N/A
ALGOMA LAKESHORE 1336          290/  5/  9   N/A
KEWAUNEE LAKESHO 1348   32     280/  6/ 10 1025.3R
SHEBOYGAN LAKESH 1300   32     260/  7/  9 1027.1R
PORT WASHINGTON  1240   32     260/  4/  9 1028.1R
MILWAUKEE LAKESH 1350   32     260/  8/  9   N/A
S MID LAKE BUOY  1250   36 49  260/ 10/ 16 1027.3R   1/ 5
KENOSHA   LAKESH 1300   32     280/  6/ 10 1027.4
$$

TC  - TEMPERATURE IN CELSIUS
VSB - VISIBILITY IN STATUTE MILES
WCI - WIND CHILL INDEX
HX  - HEAT INDEX





USA.gov is the U.S. government's official web portal to all federal, state and local government web resources and services.